Time,TemperatureF,DewpointF,PressureIn,WindDirection,WindDirectionDegrees,WindSpeedMPH,WindSpeedGustMPH,Humidity,HourlyPrecipIn,Conditions,Clouds,dailyrainin,SoftwareType,DateUTC
2013-01-03 00:02:00,14.0,-99.9,-100.00,North,0,0.0,0.0,-999,0.00,,,-99.99,,2013-01-03 07:02:00,
2013-01-03 00:12:00,14.0,-99.9,-100.00,North,0,0.0,0.0,-999,0.00,,,-99.99,,2013-01-03 07:12:00,
2013-01-03 00:22:00,12.0,-99.9,-100.00,North,0,0.0,0.0,-999,0.00,,,-99.99,,2013-01-03 07:22:00,
2013-01-03 00:33:00,12.0,-99.9,-100.00,North,0,0.0,0.0,-999,0.00,,,-99.99,,2013-01-03 07:33:00,
2013-01-03 00:43:00,12.0,-99.9,-100.00,North,0,0.0,0.0,-999,0.00,,,-99.99,,2013-01-03 07:43:00,
2013-01-03 00:53:00,12.0,-99.9,-100.00,North,0,0.0,0.0,-999,0.00,,,-99.99,,2013-01-03 07:53:00,
2013-01-03 01:02:00,13.0,-99.9,-100.00,North,0,0.0,0.0,-999,0.00,,,-99.99,,2013-01-03 08:02:00,
2013-01-03 01:12:00,13.0,-99.9,-100.00,North,0,0.0,0.0,-999,0.00,,,-99.99,,2013-01-03 08:12:00,
2013-01-03 01:23:00,13.0,-99.9,-100.00,North,0,0.0,0.0,-999,0.00,,,-99.99,,2013-01-03 08:23:00,
2013-01-03 01:33:00,13.0,-99.9,-100.00,North,0,0.0,0.0,-999,0.00,,,-99.99,,2013-01-03 08:33:00,
2013-01-03 01:43:00,13.0,-99.9,-100.00,North,0,0.0,0.0,-999,0.00,,,-99.99,,2013-01-03 08:43:00,
2013-01-03 01:53:00,11.0,-99.9,-100.00,North,0,0.0,0.0,-999,0.00,,,-99.99,,2013-01-03 08:53:00,
2013-01-03 02:03:00,11.0,-99.9,-100.00,North,0,0.0,0.0,-999,0.00,,,-99.99,,2013-01-03 09:03:00,
2013-01-03 02:12:00,11.0,-99.9,-100.00,North,0,0.0,0.0,-999,0.00,,,-99.99,,2013-01-03 09:12:00,
2013-01-03 02:23:00,11.0,-99.9,-100.00,North,0,0.0,0.0,-999,0.00,,,-99.99,,2013-01-03 09:23:00,
2013-01-03 02:34:00,11.0,-99.9,-100.00,North,0,0.0,0.0,-999,0.00,,,-99.99,,2013-01-03 09:34:00,
2013-01-03 02:43:00,11.0,-99.9,-100.00,North,0,0.0,0.0,-999,0.00,,,-99.99,,2013-01-03 09:43:00,
2013-01-03 02:53:00,11.0,-99.9,-100.00,North,0,0.0,0.0,-999,0.00,,,-99.99,,2013-01-03 09:53:00,
2013-01-03 03:02:00,11.0,-99.9,-100.00,North,0,0.0,0.0,-999,0.00,,,-99.99,,2013-01-03 10:02:00,
2013-01-03 03:12:00,11.0,-99.9,-100.00,North,0,0.0,0.0,-999,0.00,,,-99.99,,2013-01-03 10:12:00,
2013-01-03 03:23:00,11.0,-99.9,-100.00,North,0,0.0,0.0,-999,0.00,,,-99.99,,2013-01-03 10:23:00,
2013-01-03 03:33:00,11.0,-99.9,-100.00,North,0,0.0,0.0,-999,0.00,,,-99.99,,2013-01-03 10:33:00,
2013-01-03 03:43:00,11.0,-99.9,-100.00,North,0,0.0,0.0,-999,0.00,,,-99.99,,2013-01-03 10:43:00,
2013-01-03 03:53:00,11.0,-99.9,-100.00,North,0,0.0,0.0,-999,0.00,,,-99.99,,2013-01-03 10:53:00,
2013-01-03 04:03:00,9.0,-99.9,-100.00,North,0,0.0,0.0,-999,0.00,,,-99.99,,2013-01-03 11:03:00,
2013-01-03 04:12:00,9.0,-99.9,-100.00,North,0,0.0,0.0,-999,0.00,,,-99.99,,2013-01-03 11:12:00,
2013-01-03 04:23:00,11.0,-99.9,-100.00,North,0,0.0,0.0,-999,0.00,,,-99.99,,2013-01-03 11:23:00,
2013-01-03 04:34:00,10.0,-99.9,-100.00,North,0,0.0,0.0,-999,0.00,,,-99.99,,2013-01-03 11:34:00,
2013-01-03 04:43:00,10.0,-99.9,-100.00,North,0,0.0,0.0,-999,0.00,,,-99.99,,2013-01-03 11:43:00,
2013-01-03 04:53:00,10.0,-99.9,-100.00,North,0,0.0,0.0,-999,0.00,,,-99.99,,2013-01-03 11:53:00,
2013-01-03 05:03:00,10.0,-99.9,-100.00,North,0,0.0,0.0,-999,0.00,,,-99.99,,2013-01-03 12:03:00,
2013-01-03 05:12:00,10.0,-99.9,-100.00,North,0,0.0,0.0,-999,0.00,,,-99.99,,2013-01-03 12:12:00,
2013-01-03 05:23:00,8.0,-99.9,-100.00,North,0,0.0,0.0,-999,0.00,,,-99.99,,2013-01-03 12:23:00,
2013-01-03 05:33:00,8.0,-99.9,-100.00,North,0,0.0,0.0,-999,0.00,,,-99.99,,2013-01-03 12:33:00,
2013-01-03 05:43:00,8.0,-99.9,-100.00,North,0,0.0,0.0,-999,0.00,,,-99.99,,2013-01-03 12:43:00,
2013-01-03 05:53:00,7.0,-99.9,-100.00,North,0,0.0,0.0,-999,0.00,,,-99.99,,2013-01-03 12:53:00,
2013-01-03 06:03:00,8.0,-99.9,-100.00,North,0,0.0,0.0,-999,0.00,,,-99.99,,2013-01-03 13:03:00,
2013-01-03 06:13:00,8.0,-99.9,-100.00,North,0,0.0,0.0,-999,0.00,,,-99.99,,2013-01-03 13:13:00,
2013-01-03 06:22:00,6.0,-99.9,-100.00,North,0,0.0,0.0,-999,0.00,,,-99.99,,2013-01-03 13:22:00,
2013-01-03 06:33:00,6.0,-99.9,-100.00,North,0,0.0,0.0,-999,0.00,,,-99.99,,2013-01-03 13:33:00,
2013-01-03 06:43:00,6.0,-99.9,-100.00,North,0,0.0,0.0,-999,0.00,,,-99.99,,2013-01-03 13:43:00,
2013-01-03 06:53:00,9.0,-99.9,-100.00,North,0,0.0,0.0,-999,0.00,,,-99.99,,2013-01-03 13:53:00,
2013-01-03 07:03:00,8.0,-99.9,-100.00,North,0,0.0,0.0,-999,0.00,,,-99.99,,2013-01-03 14:03:00,
2013-01-03 07:12:00,8.0,-99.9,-100.00,North,0,0.0,0.0,-999,0.00,,,-99.99,,2013-01-03 14:12:00,
2013-01-03 07:23:00,8.0,-99.9,-100.00,North,0,0.0,0.0,-999,0.00,,,-99.99,,2013-01-03 14:23:00,
2013-01-03 07:33:00,8.0,-99.9,-100.00,North,0,0.0,0.0,-999,0.00,,,-99.99,,2013-01-03 14:33:00,
2013-01-03 07:43:00,8.0,-99.9,-100.00,North,0,0.0,0.0,-999,0.00,,,-99.99,,2013-01-03 14:43:00,
2013-01-03 07:53:00,8.0,-99.9,-100.00,North,0,0.0,0.0,-999,0.00,,,-99.99,,2013-01-03 14:53:00,
2013-01-03 08:03:00,7.0,-99.9,-100.00,North,0,0.0,0.0,-999,0.00,,,-99.99,,2013-01-03 15:03:00,
2013-01-03 08:13:00,9.0,-99.9,-100.00,North,0,0.0,0.0,-999,0.00,,,-99.99,,2013-01-03 15:13:00,
2013-01-03 08:23:00,9.0,-99.9,-100.00,North,0,0.0,0.0,-999,0.00,,,-99.99,,2013-01-03 15:23:00,
2013-01-03 08:34:00,8.0,-99.9,-100.00,North,0,0.0,0.0,-999,0.00,,,-99.99,,2013-01-03 15:34:00,
2013-01-03 08:43:00,8.0,-99.9,-100.00,North,0,0.0,0.0,-999,0.00,,,-99.99,,2013-01-03 15:43:00,
2013-01-03 08:53:00,10.0,-99.9,-100.00,West,262,4.0,6.0,-999,0.00,,,-99.99,,2013-01-03 15:53:00,
2013-01-03 09:03:00,8.0,-99.9,-100.00,WSW,238,4.0,6.0,-999,0.00,,,-99.99,,2013-01-03 16:03:00,
2013-01-03 09:13:00,8.0,-99.9,-100.00,WSW,238,4.0,6.0,-999,0.00,,,-99.99,,2013-01-03 16:13:00,
2013-01-03 09:23:00,11.0,-99.9,-100.00,West,277,6.0,7.0,-999,0.00,,,-99.99,,2013-01-03 16:23:00,
2013-01-03 09:34:00,10.0,-99.9,-100.00,West,259,4.0,6.0,-999,0.00,,,-99.99,,2013-01-03 16:34:00,
2013-01-03 09:43:00,10.0,-99.9,-100.00,West,259,4.0,6.0,-999,0.00,,,-99.99,,2013-01-03 16:43:00,
2013-01-03 09:53:00,11.0,-99.9,-100.00,West,263,4.0,6.0,-999,0.00,,,-99.99,,2013-01-03 16:53:00,
2013-01-03 10:03:00,12.0,-99.9,-100.00,West,271,2.0,6.0,-999,0.00,,,-99.99,,2013-01-03 17:03:00,
2013-01-03 10:13:00,12.0,-99.9,-100.00,West,271,2.0,6.0,-999,0.00,,,-99.99,,2013-01-03 17:13:00,
2013-01-03 10:23:00,12.0,-99.9,-100.00,SW,226,1.0,6.0,-999,0.00,,,-99.99,,2013-01-03 17:23:00,
2013-01-03 10:33:00,13.0,-99.9,-100.00,WSW,255,3.0,6.0,-999,0.00,,,-99.99,,2013-01-03 17:33:00,
2013-01-03 10:43:00,13.0,-99.9,-100.00,WSW,255,3.0,6.0,-999,0.00,,,-99.99,,2013-01-03 17:43:00,
2013-01-03 10:53:00,14.0,-99.9,-100.00,North,0,0.0,0.0,-999,0.00,,,-99.99,,2013-01-03 17:53:00,
2013-01-03 11:04:00,14.0,-99.9,-100.00,WSW,255,1.0,5.0,-999,0.00,,,-99.99,,2013-01-03 18:04:00,
2013-01-03 11:13:00,14.0,-99.9,-100.00,WSW,255,1.0,5.0,-999,0.00,,,-99.99,,2013-01-03 18:13:00,
2013-01-03 11:23:00,16.0,-99.9,-100.00,SW,215,5.0,7.0,-999,0.00,,,-99.99,,2013-01-03 18:23:00,
2013-01-03 11:33:00,17.0,-99.9,-100.00,WSW,250,4.0,7.0,-999,0.00,,,-99.99,,2013-01-03 18:33:00,
2013-01-03 11:43:00,17.0,-99.9,-100.00,WSW,250,4.0,7.0,-999,0.00,,,-99.99,,2013-01-03 18:43:00,
2013-01-03 11:54:00,18.0,-99.9,-100.00,SW,222,4.0,7.0,-999,0.00,,,-99.99,,2013-01-03 18:54:00,
2013-01-03 12:03:00,18.0,-99.9,-100.00,WSW,245,6.0,8.0,-999,0.00,,,-99.99,,2013-01-03 19:03:00,
2013-01-03 12:13:00,18.0,-99.9,-100.00,WSW,245,6.0,8.0,-999,0.00,,,-99.99,,2013-01-03 19:13:00,
2013-01-03 12:52:00,20.0,-99.9,-100.00,WSW,246,6.0,8.0,-999,0.00,,,-99.99,,2013-01-03 19:52:00,
2013-01-03 12:57:00,21.0,-99.9,-100.00,WSW,248,6.0,8.0,-999,0.00,,,-99.99,,2013-01-03 19:57:00,
2013-01-03 13:03:00,21.0,-99.9,-100.00,WSW,242,5.0,7.0,-999,0.00,,,-99.99,,2013-01-03 20:03:00,
2013-01-03 13:13:00,21.0,-99.9,-100.00,WSW,242,5.0,7.0,-999,0.00,,,-99.99,,2013-01-03 20:13:00,
2013-01-03 13:23:00,22.0,-99.9,-100.00,WSW,245,6.0,8.0,-999,0.00,,,-99.99,,2013-01-03 20:23:00,
2013-01-03 13:33:00,22.0,-99.9,-100.00,SW,228,6.0,7.0,-999,0.00,,,-99.99,,2013-01-03 20:33:00,
2013-01-03 13:43:00,22.0,-99.9,-100.00,SW,228,6.0,7.0,-999,0.00,,,-99.99,,2013-01-03 20:43:00,
2013-01-03 13:53:00,22.0,-99.9,-100.00,WSW,239,6.0,7.0,-999,0.00,,,-99.99,,2013-01-03 20:53:00,
2013-01-03 14:03:00,23.0,-99.9,-100.00,WSW,238,6.0,8.0,-999,0.00,,,-99.99,,2013-01-03 21:03:00,
2013-01-03 14:13:00,23.0,-99.9,-100.00,WSW,238,6.0,8.0,-999,0.00,,,-99.99,,2013-01-03 21:13:00,
2013-01-03 14:23:00,24.0,-99.9,-100.00,SW,229,5.0,7.0,-999,0.00,,,-99.99,,2013-01-03 21:23:00,
2013-01-03 14:38:00,23.0,-99.9,-100.00,SW,225,5.0,7.0,-999,0.00,,,-99.99,,2013-01-03 21:38:00,
2013-01-03 14:51:00,23.0,-99.9,-100.00,SW,225,5.0,7.0,-999,0.00,,,-99.99,,2013-01-03 21:51:00,
2013-01-03 15:03:00,24.0,-99.9,-100.00,SW,217,3.0,6.0,-999,0.00,,,-99.99,,2013-01-03 22:03:00,
2013-01-03 15:12:00,24.0,-99.9,-100.00,SW,217,3.0,6.0,-999,0.00,,,-99.99,,2013-01-03 22:12:00,
2013-01-03 15:23:00,24.0,-99.9,-100.00,WSW,255,5.0,6.0,-999,0.00,,,-99.99,,2013-01-03 22:23:00,
2013-01-03 15:33:00,23.0,-99.9,-100.00,North,0,0.0,0.0,-999,0.00,,,-99.99,,2013-01-03 22:33:00,
2013-01-03 15:43:00,23.0,-99.9,-100.00,North,0,0.0,0.0,-999,0.00,,,-99.99,,2013-01-03 22:43:00,
2013-01-03 15:53:00,24.0,-99.9,-100.00,SW,235,0.0,3.0,-999,0.00,,,-99.99,,2013-01-03 22:53:00,
2013-01-03 16:03:00,24.0,-99.9,-100.00,SW,218,3.0,5.0,-999,0.00,,,-99.99,,2013-01-03 23:03:00,
2013-01-03 16:13:00,24.0,-99.9,-100.00,SW,218,3.0,5.0,-999,0.00,,,-99.99,,2013-01-03 23:13:00,
2013-01-03 16:23:00,22.0,-99.9,-100.00,North,0,0.0,0.0,-999,0.00,,,-99.99,,2013-01-03 23:23:00,
2013-01-03 16:33:00,22.0,-99.9,-100.00,North,0,0.0,0.0,-999,0.00,,,-99.99,,2013-01-03 23:33:00,
2013-01-03 16:43:00,22.0,-99.9,-100.00,North,0,0.0,0.0,-999,0.00,,,-99.99,,2013-01-03 23:43:00,
2013-01-03 16:53:00,21.0,-99.9,-100.00,North,0,0.0,0.0,-999,0.00,,,-99.99,,2013-01-03 23:53:00,
2013-01-03 17:03:00,21.0,-99.9,-100.00,North,0,0.0,0.0,-999,0.00,,,-99.99,,2013-01-04 00:03:00,
2013-01-03 17:13:00,21.0,-99.9,-100.00,North,0,0.0,0.0,-999,0.00,,,-99.99,,2013-01-04 00:13:00,
2013-01-03 17:23:00,20.0,-99.9,-100.00,North,0,0.0,0.0,-999,0.00,,,-99.99,,2013-01-04 00:23:00,
2013-01-03 17:33:00,20.0,-99.9,-100.00,North,0,0.0,0.0,-999,0.00,,,-99.99,,2013-01-04 00:33:00,
2013-01-03 17:43:00,20.0,-99.9,-100.00,North,0,0.0,0.0,-999,0.00,,,-99.99,,2013-01-04 00:43:00,
2013-01-03 17:53:00,21.0,-99.9,-100.00,North,0,0.0,0.0,-999,0.00,,,-99.99,,2013-01-04 00:53:00,
2013-01-03 18:03:00,24.0,-99.9,-100.00,North,0,0.0,0.0,-999,0.00,,,-99.99,,2013-01-04 01:03:00,
2013-01-03 18:13:00,24.0,-99.9,-100.00,North,0,0.0,0.0,-999,0.00,,,-99.99,,2013-01-04 01:13:00,
2013-01-03 18:22:00,24.0,-99.9,-100.00,North,0,0.0,0.0,-999,0.00,,,-99.99,,2013-01-04 01:22:00,
2013-01-03 18:33:00,24.0,-99.9,-100.00,North,0,0.0,0.0,-999,0.00,,,-99.99,,2013-01-04 01:33:00,
2013-01-03 18:43:00,24.0,-99.9,-100.00,North,0,0.0,0.0,-999,0.00,,,-99.99,,2013-01-04 01:43:00,
2013-01-03 18:53:00,24.0,-99.9,-100.00,North,0,0.0,0.0,-999,0.00,,,-99.99,,2013-01-04 01:53:00,
2013-01-03 19:02:00,23.0,-99.9,-100.00,North,0,0.0,0.0,-999,0.00,,,-99.99,,2013-01-04 02:02:00,
2013-01-03 19:12:00,23.0,-99.9,-100.00,North,0,0.0,0.0,-999,0.00,,,-99.99,,2013-01-04 02:12:00,
2013-01-03 19:23:00,23.0,-99.9,-100.00,North,0,0.0,0.0,-999,0.00,,,-99.99,,2013-01-04 02:23:00,
2013-01-03 19:33:00,23.0,-99.9,-100.00,North,0,0.0,0.0,-999,0.00,,,-99.99,,2013-01-04 02:33:00,
2013-01-03 19:43:00,23.0,-99.9,-100.00,North,0,0.0,0.0,-999,0.00,,,-99.99,,2013-01-04 02:43:00,
2013-01-03 19:53:00,24.0,-99.9,-100.00,North,0,0.0,0.0,-999,0.00,,,-99.99,,2013-01-04 02:53:00,
2013-01-03 20:03:00,23.0,-99.9,-100.00,North,0,0.0,0.0,-999,0.00,,,-99.99,,2013-01-04 03:03:00,
2013-01-03 20:12:00,23.0,-99.9,-100.00,North,0,0.0,0.0,-999,0.00,,,-99.99,,2013-01-04 03:12:00,
2013-01-03 20:23:00,23.0,-99.9,-100.00,North,0,0.0,0.0,-999,0.00,,,-99.99,,2013-01-04 03:23:00,
2013-01-03 20:33:00,23.0,-99.9,-100.00,North,0,0.0,0.0,-999,0.00,,,-99.99,,2013-01-04 03:33:00,
2013-01-03 20:43:00,23.0,-99.9,-100.00,North,0,0.0,0.0,-999,0.00,,,-99.99,,2013-01-04 03:43:00,
2013-01-03 20:53:00,24.0,-99.9,-100.00,North,0,0.0,0.0,-999,0.00,,,-99.99,,2013-01-04 03:53:00,
2013-01-03 21:02:00,23.0,-99.9,-100.00,North,0,0.0,0.0,-999,0.00,,,-99.99,,2013-01-04 04:02:00,
2013-01-03 21:12:00,23.0,-99.9,-100.00,North,0,0.0,0.0,-999,0.00,,,-99.99,,2013-01-04 04:12:00,
2013-01-03 21:22:00,23.0,-99.9,-100.00,North,0,0.0,0.0,-999,0.00,,,-99.99,,2013-01-04 04:22:00,
2013-01-03 21:33:00,23.0,-99.9,-100.00,North,0,0.0,0.0,-999,0.00,,,-99.99,,2013-01-04 04:33:00,
2013-01-03 21:42:00,23.0,-99.9,-100.00,North,0,0.0,0.0,-999,0.00,,,-99.99,,2013-01-04 04:42:00,
2013-01-03 21:53:00,22.0,-99.9,-100.00,North,0,0.0,0.0,-999,0.00,,,-99.99,,2013-01-04 04:53:00,
2013-01-03 22:04:00,21.0,-99.9,-100.00,North,0,0.0,0.0,-999,0.00,,,-99.99,,2013-01-04 05:04:00,
2013-01-03 22:12:00,21.0,-99.9,-100.00,North,0,0.0,0.0,-999,0.00,,,-99.99,,2013-01-04 05:12:00,
2013-01-03 22:22:00,22.0,-99.9,-100.00,North,0,0.0,0.0,-999,0.00,,,-99.99,,2013-01-04 05:22:00,
2013-01-03 22:33:00,22.0,-99.9,-100.00,North,0,0.0,0.0,-999,0.00,,,-99.99,,2013-01-04 05:33:00,
2013-01-03 22:43:00,22.0,-99.9,-100.00,North,0,0.0,0.0,-999,0.00,,,-99.99,,2013-01-04 05:43:00,
2013-01-03 22:53:00,21.0,-99.9,-100.00,North,0,0.0,0.0,-999,0.00,,,-99.99,,2013-01-04 05:53:00,
2013-01-03 23:02:00,21.0,-99.9,-100.00,North,0,0.0,0.0,-999,0.00,,,-99.99,,2013-01-04 06:02:00,
2013-01-03 23:12:00,21.0,-99.9,-100.00,North,0,0.0,0.0,-999,0.00,,,-99.99,,2013-01-04 06:12:00,
2013-01-03 23:22:00,22.0,-99.9,-100.00,North,0,0.0,0.0,-999,0.00,,,-99.99,,2013-01-04 06:22:00,
2013-01-03 23:33:00,21.0,-99.9,-100.00,North,0,0.0,0.0,-999,0.00,,,-99.99,,2013-01-04 06:33:00,
2013-01-03 23:43:00,21.0,-99.9,-100.00,North,0,0.0,0.0,-999,0.00,,,-99.99,,2013-01-04 06:43:00,
2013-01-03 23:53:00,20.0,-99.9,-100.00,North,0,0.0,0.0,-999,0.00,,,-99.99,,2013-01-04 06:53:00,